[Iaude] MPEC D110: 2024 CF1 [a=1.14,e=0.49,i=6.6,H=22.00]

mpec at cfa.harvard.edu mpec at cfa.harvard.edu
Thu Feb 22 09:13:36 EST 2024


M.P.E.C. 2024-D110                            Issued 2024 February 22, 14:12 UT

     The Minor Planet Electronic Circulars contain information on unusual
         minor planets, routine data on comets and natural satellites,
         and occasional editorial announcements.  They are published
    on behalf of Division F of the International Astronomical Union by the
          Minor Planet Center, Smithsonian Astrophysical Observatory,
                          Cambridge, MA 02138, U.S.A.
			  
             Prepared using the Tamkin Foundation Computer Network

                              MPC at CFA.HARVARD.EDU
            URL https://www.minorplanetcenter.net/    ISSN 1523-6714

                                    2024 CF1                                    


                           Revision to MPEC 2024-C75                            

Additional Observations:
     K24C01F &C2018 02 09.34627213 41 11.75 +13 05 48.3                WED110W84
     K24C01F &C2018 02 10.31211213 45 06.23 +13 13 00.0                WED110W84
     K24C01F  C2018 02 18.51847 14 26 01.96 +14 27 34.6          20.9 GUED110G96
     K24C01F  C2018 02 18.52418 14 26 03.97 +14 27 37.8          20.7 GUED110G96
     K24C01F  C2018 02 18.52989 14 26 05.98 +14 27 42.2                UED110G96
     K24C01F  C2018 02 18.53561 14 26 07.96 +14 27 44.9          19.9 GUED110G96
     K24C01F  C2018 12 31.43145808 00 04.910+32 32 17.66         23.46GVED110F51
     K24C01F  C2018 12 31.44383208 00 02.927+32 32 27.93         23.59GVED110F51
     K24C01F  C2018 12 31.45630908 00 00.929+32 32 38.67         22.58GVED110F51
     K24C01F  C2019 01 02.52706607 54 31.597+33 00 56.66         22.66GVED110F51
     K24C01F  C2019 01 02.53810207 54 29.735+33 01 05.67         23.11GVED110F51
     K24C01F  C2019 01 02.54914307 54 27.845+33 01 14.04         24.40GVED110F51
     K24C01F  C2019 01 02.56012507 54 25.988+33 01 22.63         22.95GVED110F51

Observer details:
F51 Pan-STARRS 1, Haleakala.  Observers J. Herman, T. Lowe, P. Minguez, A.
    Schultz, I. Smith.  Measurers K. Chambers, T. de Boer, J. Fairlamb, H.
    Gao, M. Huber, C.-C. Lin, E. Magnier, Y. Ramanjooloo, R. Wainscoat, R.
    Weryk.  1.8-m Ritchey-Chretien + CCD.
G96 Mt. Lemmon Survey.  Observer D. C. Fuls.  Measurers E. J. Christensen, D.
    C. Fuls, A. R. Gibbs, A. D. Grauer, J. A. Johnson, R. A. Kowalski, S. M.
    Larson, G. J. Leonard, R. G. Matheny, R. L. Seaman, F. C. Shelly.  1.5-m
    reflector + 10K CCD.
W84 Cerro Tololo-DECam.  Observer S. Juneau.  Measurer S. Deen.  4.0-m
    reflector + CCD.

Orbital elements:
2024 CF1                                                 Earth MOID = 0.0570 AU
Epoch 2024 Mar. 31.0 TT = JDT 2460400.5                 Veres                   
M 316.73626              (2000.0)            P               Q                  
n   0.81480944     Peri.  223.72354     +0.17869947     +0.97916750             
a   1.1352687      Node    56.79493     -0.86806737     +0.20303563             
e   0.4934086      Incl.    6.61750     -0.46316901     -0.00274607             
P   1.21           H   22.00          G   0.15           U   2                  
Residuals in seconds of arc
180209 W84  0.6+  0.0     190102 F51  0.3-  0.0     240203 H21  0.8+  0.0
180210 W84  0.0   0.2+    190102 F51  0.4-  0.0     240205 691  1.5-  1.1+
180218 G96  0.4+  0.1+    240121 F51  0.2-  0.3+    240205 691  1.2-  0.7+
180218 G96  0.2+  0.2-    240121 F51  0.7-  0.1-    240205 691  1.2-  0.4+
180218 G96  0.1+  0.6+    240121 F51  0.0   0.2+    240205 I52  0.1+  0.1-
180218 G96  0.6-  0.2-    240121 F51  0.1+  0.5+    240207 F52  0.1-  0.3-
181231 F51  0.2+  0.0     240201 F52  0.1+  0.2-    240207 F52  0.2-  0.2-
181231 F51  0.1+  0.2-    240201 F52  0.1+  0.1-    240207 F52  0.0   0.2-
181231 F51  0.1+  0.0     240201 F52  0.0   0.1-    240216 I52  0.2-  0.0
190102 F51  0.1+  0.1+    240203 H21  0.1+  0.1+    240216 I52  0.5-  0.2-
190102 F51  0.1+  0.4+    240203 H21  0.6+  0.2+

Ephemeris:
2024 CF1                 a,e,i = 1.14, 0.49, 7                   q = 0.5751
Date    TT    R. A. (2000) Decl.     Delta      r    Elong.  Phase     V
2024 01 23    11 22 46.8 +22 44 15   0.5506  1.4363   136.9    27.9    22.7
...
2024 02 07    11 16 37.5 +29 22 01   0.4036  1.3501   149.7    21.6    21.7
...
2024 02 15    11 03 21.0 +34 37 33   0.3392  1.2988   152.9    20.3    21.2
...
2024 02 21    10 45 57.3 +39 22 09   0.2987  1.2577   150.7    22.6    21.0
2024 02 22    10 42 14.7 +40 12 54   0.2926  1.2507   149.9    23.4    20.9
2024 02 23    10 38 15.8 +41 04 23   0.2867  1.2436   148.9    24.2    20.9
...
2024 02 29    10 07 47.1 +46 21 15   0.2557  1.1997   140.8    31.4    20.8
...
2024 03 08    09 04 49.5 +52 46 10   0.2257  1.1380   125.3    45.4    20.8
...
2024 03 23    06 07 00.4 +54 58 04   0.2009  1.0128    88.9    79.7    21.3

A. U. Tomatic                (C) Copyright 2024 MPC           M.P.E.C. 2024-D110





More information about the Iaude mailing list